Regional Weather Roundup
Issued by NWS

Home | Current Version | Previous Version | Text Only | Print | Product List | Glossary On
Versions: 1 2 3 4 5 6 7 8 9 10 11 12 13 14 15 16 17 18 19 20 21 22 23 24 25 26 27 28 29 30 31 32 33 34 35 36 37 38 39 40 41 42 43 44 45 46 47 48 49 50
000
ASUS45 KBOU 232107
RWRCO

WEATHER ROUNDUP FOR COLORADO
NATIONAL WEATHER SERVICE DENVER/BOULDER CO
300 PM MDT TUE MAY 23 2017

NOTE: "FAIR" INDICATES FEW OR NO CLOUDS BELOW 12000 FEET WITH NO
SIGNIFICANT WEATHER AND/OR OBSTRUCTIONS TO VISIBILITY.

COZ001>005-013-030-031-232200-
...NORTHWEST COLORADO...

CITY           SKY/WX    TMP DP  RH WIND       PRES   REMARKS
CRAIG          FAIR      61  33  35 W9        30.24F
HAYDEN         PTSUNNY   55  30  38 W7        30.25F
MEEKER         FAIR      61  22  22 W9        30.23F
RABBIT EARS PA MOCLDY    32  32 100 W8        30.35S WCI  25
STEAMBOAT SPGS PTSUNNY   54  35  49 S9G16     30.25F
WALDEN           N/A     52  25  35 NW22G28   30.27S
$$

COZ006>008-011-232200-
...WEST CENTRAL VALLEYS...

CITY           SKY/WX    TMP DP  RH WIND       PRES   REMARKS
GRAND JUNCTION FAIR      69  27  20 W6        30.15F
MONTROSE       FAIR      64  20  18 NE5       30.21F
EAGLE          MOSUNNY   59  27  29 NE7       30.23F
RIFLE          FAIR      69  12  11 NW10G22   30.18F
DELTA          FAIR      72  18  13 CALM      30.15F
NUCLA          FAIR      68  12  11 N8G16     30.22F
$$

COZ017>023-064>068-232200-
...SOUTHWEST COLORADO...

CITY           SKY/WX    TMP DP  RH WIND       PRES   REMARKS
DURANGO        FAIR      71  11  10 MISG      30.08F
CORTEZ         FAIR      71  19  14 NW17G26   30.16F
PAGOSA SPRINGS FAIR      66   6   9 SW12      30.15F
TELLURIDE      FAIR      54  13  19 N6        30.32
WOLF CREEK PAS FAIR      37   9  30 NW6       30.41S
$$

COZ009-010-012-014-032>034-037-058>063-232200-
...CENTRAL COLORADO...

CITY           SKY/WX    TMP DP  RH WIND       PRES   REMARKS
ASPEN          FAIR      54  23  30 VRB7G22   30.23F
BUENA VISTA    FAIR      56  17  21 N22G30    30.20F
COPPER MTN     CLOUDY    34  21  60 NW22G30   30.36S HAZE    WCI  22
BERTHOUD PASS  CLOUDY    23  12  63 NW29G35   30.32R WCI   6
COTTONWOOD PAS FAIR      52  12  20 NW8       30.27S
GUNNISON       FAIR      59  18  20 NW15G21   30.20F
KREMMLING      CLOUDY    55  30  38 NW8       30.26S
LEADVILLE      FAIR      44  20  38 N16G29    30.27F
MONARCH PASS   FAIR      36  14  41 N9G17     30.46S
SALIDA         FAIR      62  14  15 N9G23     30.25S
SUNLIGHT       FAIR      37  18  44 NW9       30.40S
WILKERSON PASS PTSUNNY   36  21  55 NE5       30.33F
$$

COZ069>075-232200-
...SAN LUIS VALLEY/SANGRE DE CRISTO MOUNTAINS...

CITY           SKY/WX    TMP DP  RH WIND       PRES   REMARKS
ALAMOSA        FAIR      64  19  17 N13G18    30.14F
DEL NORTE      FAIR      60  20  20 W15G21    30.17F
LA VETA PASS   PTSUNNY   43  32  65 N8G18     30.37F
SAGUACHE       FAIR      61  18  18 NW17G32   30.16F
$$

COZ035-036-038>040-232200-
...NORTHERN COLORADO FRONT RANGE...

CITY           SKY/WX    TMP DP  RH WIND       PRES   REMARKS
DENVER INTL AP PTSUNNY   60  36  40 N13G26    30.14F
DMNS CITY PARK   N/A     60  30  31 N14G26    30.14S
AURORA         PTSUNNY   57  32  38 N16G23    30.15F
FRONT RANGE AP PTSUNNY   59  37  44 NW16G23   30.16S
ERIE MUNI ARPT PTSUNNY   62  29  29 NE13G24   30.13F
BOULDER MUN AP CLOUDY    61  30  31 NW3       30.14S
CENTENNIAL     PTSUNNY   57  31  37 N12G21    30.15F
BROOMFIELD     NOT AVBL
FORT COLLINS   FAIR      62  34  35 N18       30.13F
LONGMONT       PTSUNNY   65  31  28 NW6       30.14F
$$

COZ041-046-047-076>085-087-088-232200-
...PIKES PEAK/PALMER DIVIDE AND SOUTHERN FOOTHILLS...

CITY           SKY/WX    TMP DP  RH WIND       PRES   REMARKS
COLO. SPRINGS  FAIR      61  29  29 N18G29    30.14F
A. F. ACADEMY  FAIR      56  27  33 NW18G25   30.15S
SCHRIEVER AFB  FAIR      57  27  32 N18G31    30.15F
CHEYENNE MTN   PTSUNNY   54  27  35 N14G25    30.10F
ELLICOTT       FAIR     N/A N/A N/A N17G29    30.14F
FALCON         FAIR      54  26  34 N15G25    30.18F
FORT CARSON    FAIR      62  29  28 N15G22    30.12F
LIMON          PTSUNNY   57  33  40 N24G32    30.12F
MONUMENT HILL  FAIR      50  32  50 N17G24    30.20S
CANON CITY     NOT AVBL
WALSENBURG     FAIR      61  34  36 NE6       30.15F
TRINIDAD       FAIR      59  31  34 NE13G23   30.15F
$$

COZ042>045-048>051-090-091-232200-
...NORTHEAST COLORADO...

CITY           SKY/WX    TMP DP  RH WIND       PRES   REMARKS
GREELEY ARPT   FAIR      63  36  36 N22       30.12F
AKRON          CLOUDY    57  34  41 N23G29    30.10F
BURLINGTON     CLOUDY    58  37  45 N21G28    30.07F
WRAY           CLOUDY    59  32  36 N24G30    30.07S
YUMA           CLOUDY    54  21  28 NW16G25   30.09S
STERLING       CLOUDY    59  36  41 N16G24    30.08F
HOLYOKE        NOT AVBL
FORT MORGAN    FAIR      59  31  35 N22G30    30.12F
$$

COZ086-089-092>099-232200-
...SOUTHEAST COLORADO...

CITY           SKY/WX    TMP DP  RH WIND       PRES   REMARKS
PUEBLO         PTSUNNY   65  32  29 NE14G20   30.10F
LA JUNTA       PTSUNNY   64  35  34 N20       30.10F
LAMAR          CLOUDY    63  32  31 N20G30    30.05F
SPRINGFIELD      N/A     59  34  39 N25G31    30.08F
$$



USA.gov is the U.S. government's official web portal to all federal, state and local government web resources and services.